Time,TemperatureF,DewpointF,PressureIn,WindDirection,WindDirectionDegrees,WindSpeedMPH,WindSpeedGustMPH,Humidity,HourlyPrecipIn,Conditions,Clouds,dailyrainin,SoftwareType,DateUTC
2013-03-04 00:03:00,46.0,39.0,26.57,NNW,331,8.0,9.0,75,0.00,,,-99.99,,2013-03-04 06:03:00,
2013-03-04 00:08:00,46.0,39.0,26.57,NNW,333,8.0,8.0,76,0.00,,,-99.99,,2013-03-04 06:08:00,
2013-03-04 00:13:00,45.0,37.0,26.57,NW,313,8.0,8.0,76,0.00,,,-99.99,,2013-03-04 06:13:00,
2013-03-04 00:18:00,45.0,37.0,26.57,NW,306,11.0,12.0,76,0.00,,,-99.99,,2013-03-04 06:18:00,
2013-03-04 00:23:00,46.0,39.0,26.56,NW,312,12.0,13.0,77,0.00,,,-99.99,,2013-03-04 06:23:00,
2013-03-04 00:28:00,47.0,39.0,26.56,NW,309,12.0,13.0,76,0.00,,,-99.99,,2013-03-04 06:28:00,
2013-03-04 00:33:00,47.0,39.0,26.56,NW,324,12.0,13.0,75,0.00,,,-99.99,,2013-03-04 06:33:00,
2013-03-04 00:38:00,47.0,39.0,26.56,NW,326,11.0,12.0,75,0.00,,,-99.99,,2013-03-04 06:38:00,
2013-03-04 00:43:00,46.0,39.0,26.56,NW,313,10.0,12.0,75,0.00,,,-99.99,,2013-03-04 06:43:00,
2013-03-04 00:48:00,46.0,39.0,26.56,NW,317,9.0,11.0,75,0.00,,,-99.99,,2013-03-04 06:48:00,
2013-03-04 00:53:00,45.0,37.0,26.56,NW,306,9.0,10.0,76,0.00,,,-99.99,,2013-03-04 06:53:00,
2013-03-04 00:58:00,45.0,37.0,26.57,WNW,299,9.0,10.0,73,0.00,,,-99.99,,2013-03-04 06:58:00,
2013-03-04 01:03:00,46.0,39.0,26.57,WNW,286,6.0,9.0,78,0.00,,,-99.99,,2013-03-04 07:03:00,
2013-03-04 01:08:00,45.0,37.0,26.57,WSW,238,7.0,9.0,77,0.00,,,-99.99,,2013-03-04 07:08:00,
2013-03-04 01:13:00,44.0,37.0,26.57,WSW,241,6.0,9.0,79,0.00,,,-99.99,,2013-03-04 07:13:00,
2013-03-04 01:18:00,44.0,37.0,26.57,WSW,247,6.0,7.0,80,0.00,,,-99.99,,2013-03-04 07:18:00,
2013-03-04 01:23:00,43.0,37.0,26.57,SW,235,6.0,7.0,80,0.00,,,-99.99,,2013-03-04 07:23:00,
2013-03-04 01:28:00,43.0,37.0,26.57,WSW,238,7.0,8.0,81,0.00,,,-99.99,,2013-03-04 07:28:00,
2013-03-04 01:38:00,43.0,37.0,26.57,WSW,251,6.0,7.0,81,0.00,,,-99.99,,2013-03-04 07:38:00,
2013-03-04 01:43:00,43.0,37.0,26.57,WSW,248,8.0,8.0,81,0.00,,,-99.99,,2013-03-04 07:43:00,
2013-03-04 01:48:00,43.0,37.0,26.58,WSW,251,9.0,10.0,78,0.00,,,-99.99,,2013-03-04 07:48:00,
2013-03-04 01:53:00,42.0,37.0,26.58,WSW,254,8.0,9.0,82,0.00,,,-99.99,,2013-03-04 07:53:00,
2013-03-04 01:58:00,43.0,37.0,26.57,WNW,285,7.0,9.0,82,0.00,,,-99.99,,2013-03-04 07:58:00,
2013-03-04 02:03:00,43.0,37.0,26.58,WNW,290,8.0,11.0,80,0.00,,,-99.99,,2013-03-04 08:03:00,
2013-03-04 02:08:00,44.0,37.0,26.58,WNW,298,7.0,8.0,80,0.00,,,-99.99,,2013-03-04 08:08:00,
2013-03-04 02:13:00,44.0,37.0,26.58,NW,307,9.0,11.0,78,0.00,,,-99.99,,2013-03-04 08:13:00,
2013-03-04 02:18:00,44.0,37.0,26.58,NW,319,10.0,12.0,78,0.00,,,-99.99,,2013-03-04 08:18:00,
2013-03-04 02:23:00,44.0,37.0,26.58,WNW,303,9.0,10.0,76,0.00,,,-99.99,,2013-03-04 08:23:00,
2013-03-04 02:28:00,44.0,37.0,26.58,NW,319,6.0,7.0,77,0.00,,,-99.99,,2013-03-04 08:28:00,
2013-03-04 02:33:00,44.0,37.0,26.58,NW,320,5.0,7.0,78,0.00,,,-99.99,,2013-03-04 08:33:00,
2013-03-04 02:38:00,44.0,37.0,26.58,NW,307,6.0,9.0,77,0.00,,,-99.99,,2013-03-04 08:38:00,
2013-03-04 02:43:00,44.0,37.0,26.58,WNW,298,8.0,11.0,75,0.00,,,-99.99,,2013-03-04 08:43:00,
2013-03-04 02:48:00,44.0,37.0,26.58,NW,313,7.0,8.0,77,0.00,,,-99.99,,2013-03-04 08:48:00,
2013-03-04 02:53:00,44.0,37.0,26.59,NNW,329,8.0,10.0,75,0.00,,,-99.99,,2013-03-04 08:53:00,
2013-03-04 02:58:00,44.0,37.0,26.59,NNW,336,11.0,12.0,75,0.00,,,-99.99,,2013-03-04 08:58:00,
2013-03-04 03:03:00,44.0,37.0,26.59,NNW,338,12.0,16.0,79,0.00,,,-99.99,,2013-03-04 09:03:00,
2013-03-04 03:13:00,45.0,39.0,26.59,NNW,334,16.0,19.0,81,0.00,,,-99.99,,2013-03-04 09:13:00,
2013-03-04 03:18:00,45.0,39.0,26.59,NNW,344,18.0,23.0,79,0.00,,,-99.99,,2013-03-04 09:18:00,
2013-03-04 03:23:00,45.0,39.0,26.59,NNW,331,19.0,23.0,79,0.00,,,-99.99,,2013-03-04 09:23:00,
2013-03-04 03:28:00,46.0,39.0,26.59,NNW,330,21.0,28.0,79,0.00,,,-99.99,,2013-03-04 09:28:00,
2013-03-04 03:33:00,46.0,39.0,26.59,NNW,343,23.0,28.0,77,0.00,,,-99.99,,2013-03-04 09:33:00,
2013-03-04 03:38:00,47.0,41.0,26.60,NW,312,24.0,31.0,77,0.00,,,-99.99,,2013-03-04 09:38:00,
2013-03-04 03:43:00,47.0,39.0,26.60,NNW,327,25.0,32.0,74,0.00,,,-99.99,,2013-03-04 09:43:00,
2013-03-04 03:48:00,47.0,41.0,26.60,NNW,344,25.0,29.0,77,0.00,,,-99.99,,2013-03-04 09:48:00,
2013-03-04 03:53:00,46.0,39.0,26.61,NW,321,23.0,29.0,78,0.00,,,-99.99,,2013-03-04 09:53:00,
2013-03-04 04:03:00,45.0,39.0,26.61,NNW,340,20.0,24.0,79,0.00,,,-99.99,,2013-03-04 10:03:00,
2013-03-04 04:08:00,45.0,39.0,26.61,NW,317,20.0,24.0,80,0.00,,,-99.99,,2013-03-04 10:08:00,
2013-03-04 04:13:00,45.0,39.0,26.61,North,353,21.0,26.0,80,0.00,,,-99.99,,2013-03-04 10:13:00,
2013-03-04 04:23:00,44.0,37.0,26.62,NNW,343,24.0,29.0,80,0.00,,,-99.99,,2013-03-04 10:23:00,
2013-03-04 04:28:00,43.0,37.0,26.63,NNW,344,23.0,27.0,81,0.00,,,-99.99,,2013-03-04 10:28:00,
2013-03-04 04:33:00,43.0,37.0,26.63,NNW,348,25.0,31.0,82,0.00,,,-99.99,,2013-03-04 10:33:00,
2013-03-04 04:38:00,42.0,37.0,26.63,NW,313,25.0,31.0,84,0.00,,,-99.99,,2013-03-04 10:38:00,
2013-03-04 04:43:00,41.0,36.0,26.64,North,351,24.0,31.0,83,0.00,,,-99.99,,2013-03-04 10:43:00,
2013-03-04 04:48:00,40.0,36.0,26.65,NW,317,23.0,29.0,86,0.00,,,-99.99,,2013-03-04 10:48:00,
2013-03-04 04:53:00,39.0,36.0,26.65,NNW,331,23.0,30.0,85,0.00,,,-99.99,,2013-03-04 10:53:00,
2013-03-04 04:58:00,39.0,36.0,26.65,NW,319,22.0,25.0,86,0.00,,,-99.99,,2013-03-04 10:58:00,
2013-03-04 05:03:00,38.0,34.0,26.66,NNW,338,20.0,26.0,87,0.00,,,-99.99,,2013-03-04 11:03:00,
2013-03-04 05:13:00,38.0,36.0,26.66,NNW,345,21.0,26.0,89,0.00,,,-99.99,,2013-03-04 11:13:00,
2013-03-04 05:18:00,38.0,36.0,26.66,NNW,344,21.0,26.0,89,0.00,,,-99.99,,2013-03-04 11:18:00,
2013-03-04 05:23:00,38.0,36.0,26.67,NNW,347,22.0,26.0,90,0.00,,,-99.99,,2013-03-04 11:23:00,
2013-03-04 05:28:00,38.0,36.0,26.67,North,350,20.0,24.0,90,0.00,,,-99.99,,2013-03-04 11:28:00,
2013-03-04 05:33:00,37.0,34.0,26.67,NNW,330,21.0,24.0,90,0.00,,,-99.99,,2013-03-04 11:33:00,
2013-03-04 05:38:00,37.0,34.0,26.67,North,353,20.0,26.0,90,0.00,,,-99.99,,2013-03-04 11:38:00,
2013-03-04 05:48:00,37.0,34.0,26.67,NNW,329,22.0,26.0,90,0.00,,,-99.99,,2013-03-04 11:48:00,
2013-03-04 05:53:00,37.0,34.0,26.68,NNW,340,21.0,25.0,90,0.00,,,-99.99,,2013-03-04 11:53:00,
2013-03-04 05:58:00,37.0,34.0,26.68,NNW,334,22.0,28.0,90,0.00,,,-99.99,,2013-03-04 11:58:00,
2013-03-04 06:03:00,36.0,34.0,26.68,NNW,347,23.0,27.0,90,0.00,,,-99.99,,2013-03-04 12:03:00,
2013-03-04 06:08:00,36.0,34.0,26.68,NNW,330,22.0,27.0,90,0.00,,,-99.99,,2013-03-04 12:08:00,
2013-03-04 06:13:00,36.0,34.0,26.68,North,350,24.0,28.0,90,0.00,,,-99.99,,2013-03-04 12:13:00,
2013-03-04 06:18:00,36.0,34.0,26.68,North,351,23.0,26.0,90,0.00,,,-99.99,,2013-03-04 12:18:00,
2013-03-04 06:23:00,36.0,34.0,26.68,NNW,340,22.0,26.0,90,0.00,,,-99.99,,2013-03-04 12:23:00,
2013-03-04 06:28:00,36.0,34.0,26.68,North,0,20.0,24.0,90,0.00,,,-99.99,,2013-03-04 12:28:00,
2013-03-04 06:33:00,36.0,34.0,26.68,North,350,22.0,26.0,90,0.00,,,-99.99,,2013-03-04 12:33:00,
2013-03-04 06:38:00,35.0,32.0,26.68,North,354,21.0,25.0,91,0.00,,,-99.99,,2013-03-04 12:38:00,
2013-03-04 06:43:00,35.0,32.0,26.69,NNW,348,21.0,25.0,90,0.00,,,-99.99,,2013-03-04 12:43:00,
2013-03-04 06:48:00,35.0,32.0,26.69,North,355,22.0,25.0,90,0.00,,,-99.99,,2013-03-04 12:48:00,
2013-03-04 06:53:00,35.0,32.0,26.69,NNW,345,22.0,24.0,90,0.00,,,-99.99,,2013-03-04 12:53:00,
2013-03-04 07:03:00,35.0,32.0,26.70,NNW,348,19.0,25.0,91,0.00,,,-99.99,,2013-03-04 13:03:00,
2013-03-04 07:08:00,35.0,32.0,26.70,North,4,19.0,23.0,90,0.00,,,-99.99,,2013-03-04 13:08:00,
2013-03-04 07:13:00,35.0,32.0,26.70,NNW,343,20.0,23.0,90,0.00,,,-99.99,,2013-03-04 13:13:00,
2013-03-04 07:18:00,35.0,32.0,26.70,NW,310,18.0,23.0,90,0.00,,,-99.99,,2013-03-04 13:18:00,
2013-03-04 07:23:00,35.0,32.0,26.70,NNW,345,19.0,23.0,90,0.00,,,-99.99,,2013-03-04 13:23:00,
2013-03-04 07:28:00,34.0,32.0,26.71,NNW,341,20.0,23.0,91,0.00,,,-99.99,,2013-03-04 13:28:00,
2013-03-04 07:33:00,34.0,32.0,26.71,NW,320,19.0,22.0,90,0.00,,,-99.99,,2013-03-04 13:33:00,
2013-03-04 07:38:00,34.0,32.0,26.71,NNW,340,18.0,22.0,89,0.00,,,-99.99,,2013-03-04 13:38:00,
2013-03-04 07:43:00,34.0,32.0,26.72,NNW,337,18.0,22.0,90,0.00,,,-99.99,,2013-03-04 13:43:00,
2013-03-04 07:48:00,34.0,32.0,26.72,North,357,18.0,21.0,90,0.00,,,-99.99,,2013-03-04 13:48:00,
2013-03-04 07:53:00,34.0,32.0,26.72,NNW,333,18.0,22.0,90,0.00,,,-99.99,,2013-03-04 13:53:00,
2013-03-04 07:58:00,34.0,32.0,26.72,NNW,345,19.0,22.0,90,0.00,,,-99.99,,2013-03-04 13:58:00,
2013-03-04 08:03:00,34.0,32.0,26.73,NNW,333,17.0,21.0,90,0.00,,,-99.99,,2013-03-04 14:03:00,
2013-03-04 08:08:00,34.0,32.0,26.73,NNW,348,18.0,21.0,90,0.00,,,-99.99,,2013-03-04 14:08:00,
2013-03-04 08:13:00,35.0,32.0,26.73,North,350,18.0,21.0,90,0.00,,,-99.99,,2013-03-04 14:13:00,
2013-03-04 08:18:00,35.0,32.0,26.73,NNW,330,17.0,20.0,90,0.00,,,-99.99,,2013-03-04 14:18:00,
2013-03-04 08:23:00,35.0,32.0,26.74,NNW,343,16.0,19.0,89,0.00,,,-99.99,,2013-03-04 14:23:00,
2013-03-04 08:28:00,35.0,32.0,26.74,NNW,336,17.0,20.0,89,0.00,,,-99.99,,2013-03-04 14:28:00,
2013-03-04 08:33:00,35.0,32.0,26.74,North,353,18.0,22.0,89,0.00,,,-99.99,,2013-03-04 14:33:00,
2013-03-04 08:38:00,36.0,34.0,26.74,NNW,348,17.0,20.0,89,0.00,,,-99.99,,2013-03-04 14:38:00,
2013-03-04 08:43:00,36.0,32.0,26.74,NNW,336,18.0,21.0,88,0.00,,,-99.99,,2013-03-04 14:43:00,
2013-03-04 08:48:00,36.0,32.0,26.75,North,1,16.0,19.0,88,0.00,,,-99.99,,2013-03-04 14:48:00,
2013-03-04 08:53:00,36.0,32.0,26.75,NNE,24,16.0,19.0,87,0.00,,,-99.99,,2013-03-04 14:53:00,
2013-03-04 08:58:00,36.0,32.0,26.75,North,11,20.0,25.0,87,0.00,,,-99.99,,2013-03-04 14:58:00,
2013-03-04 09:03:00,36.0,32.0,26.75,North,7,22.0,25.0,87,0.00,,,-99.99,,2013-03-04 15:03:00,
2013-03-04 09:08:00,36.0,32.0,26.74,North,1,20.0,25.0,86,0.00,,,-99.99,,2013-03-04 15:08:00,
2013-03-04 09:13:00,37.0,34.0,26.74,North,4,23.0,27.0,86,0.00,,,-99.99,,2013-03-04 15:13:00,
2013-03-04 09:18:00,37.0,32.0,26.74,NNW,348,23.0,27.0,84,0.00,,,-99.99,,2013-03-04 15:18:00,
2013-03-04 09:23:00,37.0,32.0,26.73,North,3,21.0,25.0,84,0.00,,,-99.99,,2013-03-04 15:23:00,
2013-03-04 09:28:00,37.0,32.0,26.74,North,354,19.0,23.0,84,0.00,,,-99.99,,2013-03-04 15:28:00,
2013-03-04 09:33:00,37.0,32.0,26.74,North,1,20.0,25.0,83,0.00,,,-99.99,,2013-03-04 15:33:00,
2013-03-04 09:38:00,37.0,32.0,26.75,North,7,24.0,28.0,82,0.00,,,-99.99,,2013-03-04 15:38:00,
2013-03-04 09:43:00,38.0,32.0,26.75,North,3,21.0,25.0,81,0.00,,,-99.99,,2013-03-04 15:43:00,
2013-03-04 09:48:00,38.0,32.0,26.75,North,6,20.0,24.0,80,0.00,,,-99.99,,2013-03-04 15:48:00,
2013-03-04 09:53:00,38.0,32.0,26.75,North,353,21.0,26.0,79,0.00,,,-99.99,,2013-03-04 15:53:00,
2013-03-04 09:58:00,38.0,32.0,26.75,North,1,19.0,22.0,79,0.00,,,-99.99,,2013-03-04 15:58:00,
2013-03-04 10:03:00,38.0,32.0,26.75,North,354,22.0,27.0,78,0.00,,,-99.99,,2013-03-04 16:03:00,
2013-03-04 10:08:00,37.0,32.0,26.75,North,354,21.0,24.0,79,0.00,,,-99.99,,2013-03-04 16:08:00,
2013-03-04 10:13:00,38.0,32.0,26.75,North,360,18.0,22.0,78,0.00,,,-99.99,,2013-03-04 16:13:00,
2013-03-04 10:18:00,38.0,32.0,26.74,North,0,23.0,28.0,77,0.00,,,-99.99,,2013-03-04 16:18:00,
2013-03-04 10:23:00,39.0,32.0,26.74,NNW,345,22.0,25.0,77,0.00,,,-99.99,,2013-03-04 16:23:00,
2013-03-04 10:28:00,40.0,34.0,26.74,North,354,21.0,25.0,76,0.00,,,-99.99,,2013-03-04 16:28:00,
2013-03-04 10:33:00,40.0,34.0,26.74,North,8,21.0,25.0,76,0.00,,,-99.99,,2013-03-04 16:33:00,
2013-03-04 10:38:00,40.0,32.0,26.73,North,3,21.0,27.0,75,0.00,,,-99.99,,2013-03-04 16:38:00,
2013-03-04 10:43:00,41.0,34.0,26.73,North,3,22.0,26.0,74,0.00,,,-99.99,,2013-03-04 16:43:00,
2013-03-04 10:48:00,42.0,34.0,26.73,NNE,24,22.0,25.0,72,0.00,,,-99.99,,2013-03-04 16:48:00,
2013-03-04 10:53:00,42.0,34.0,26.73,NNE,25,20.0,24.0,72,0.00,,,-99.99,,2013-03-04 16:53:00,
2013-03-04 10:58:00,43.0,34.0,26.74,North,4,22.0,26.0,72,0.00,,,-99.99,,2013-03-04 16:58:00,
2013-03-04 11:03:00,43.0,34.0,26.73,North,357,21.0,25.0,70,0.00,,,-99.99,,2013-03-04 17:03:00,
2013-03-04 11:08:00,43.0,34.0,26.74,NNW,327,22.0,26.0,68,0.00,,,-99.99,,2013-03-04 17:08:00,
2013-03-04 11:13:00,44.0,34.0,26.74,NNW,347,20.0,23.0,67,0.00,,,-99.99,,2013-03-04 17:13:00,
2013-03-04 11:18:00,44.0,34.0,26.74,NNW,347,21.0,25.0,65,0.00,,,-99.99,,2013-03-04 17:18:00,
2013-03-04 11:23:00,44.0,32.0,26.73,NNW,348,23.0,26.0,64,0.00,,,-99.99,,2013-03-04 17:23:00,
2013-03-04 11:28:00,44.0,32.0,26.74,North,353,22.0,26.0,64,0.00,,,-99.99,,2013-03-04 17:28:00,
2013-03-04 11:33:00,44.0,32.0,26.73,North,8,22.0,27.0,63,0.00,,,-99.99,,2013-03-04 17:33:00,
2013-03-04 11:38:00,45.0,34.0,26.74,North,354,22.0,25.0,63,0.00,,,-99.99,,2013-03-04 17:38:00,
2013-03-04 11:43:00,45.0,32.0,26.74,North,1,19.0,23.0,62,0.00,,,-99.99,,2013-03-04 17:43:00,
2013-03-04 11:48:00,45.0,32.0,26.74,North,3,20.0,25.0,61,0.00,,,-99.99,,2013-03-04 17:48:00,
2013-03-04 11:53:00,45.0,32.0,26.75,North,3,23.0,27.0,61,0.00,,,-99.99,,2013-03-04 17:53:00,
2013-03-04 11:58:00,45.0,32.0,26.74,North,4,19.0,21.0,61,0.00,,,-99.99,,2013-03-04 17:58:00,
2013-03-04 12:03:00,45.0,32.0,26.75,NNW,331,21.0,23.0,60,0.00,,,-99.99,,2013-03-04 18:03:00,
2013-03-04 12:08:00,45.0,32.0,26.74,NNW,337,18.0,22.0,61,0.00,,,-99.99,,2013-03-04 18:08:00,
2013-03-04 12:13:00,46.0,34.0,26.75,North,10,19.0,24.0,61,0.00,,,-99.99,,2013-03-04 18:13:00,
2013-03-04 12:18:00,46.0,34.0,26.75,North,3,20.0,23.0,60,0.00,,,-99.99,,2013-03-04 18:18:00,
2013-03-04 12:23:00,46.0,34.0,26.75,North,3,19.0,23.0,60,0.00,,,-99.99,,2013-03-04 18:23:00,
2013-03-04 12:28:00,46.0,32.0,26.74,NNE,17,18.0,21.0,59,0.00,,,-99.99,,2013-03-04 18:28:00,
2013-03-04 12:33:00,46.0,32.0,26.74,North,10,16.0,20.0,59,0.00,,,-99.99,,2013-03-04 18:33:00,
2013-03-04 12:38:00,46.0,34.0,26.74,NNW,334,19.0,22.0,61,0.00,,,-99.99,,2013-03-04 18:38:00,
2013-03-04 12:43:00,45.0,32.0,26.74,NNW,334,19.0,22.0,61,0.00,,,-99.99,,2013-03-04 18:43:00,
2013-03-04 12:48:00,45.0,32.0,26.75,NNW,330,19.0,22.0,61,0.00,,,-99.99,,2013-03-04 18:48:00,
2013-03-04 12:53:00,45.0,32.0,26.75,North,353,17.0,20.0,61,0.00,,,-99.99,,2013-03-04 18:53:00,
2013-03-04 13:03:00,45.0,32.0,26.75,NNW,329,18.0,22.0,62,0.00,,,-99.99,,2013-03-04 19:03:00,
2013-03-04 13:08:00,44.0,32.0,26.75,NNW,344,19.0,22.0,62,0.00,,,-99.99,,2013-03-04 19:08:00,
2013-03-04 13:13:00,44.0,32.0,26.75,North,353,19.0,22.0,61,0.00,,,-99.99,,2013-03-04 19:13:00,
2013-03-04 13:18:00,44.0,32.0,26.74,NNW,345,21.0,25.0,63,0.00,,,-99.99,,2013-03-04 19:18:00,
2013-03-04 13:23:00,43.0,32.0,26.75,NNW,343,20.0,23.0,63,0.00,,,-99.99,,2013-03-04 19:23:00,
2013-03-04 13:28:00,43.0,32.0,26.76,North,353,18.0,21.0,63,0.00,,,-99.99,,2013-03-04 19:28:00,
2013-03-04 13:33:00,43.0,32.0,26.78,North,4,15.0,18.0,63,0.00,,,-99.99,,2013-03-04 19:33:00,
2013-03-04 13:43:00,43.0,32.0,26.79,NW,323,14.0,17.0,67,0.00,,,-99.99,,2013-03-04 19:43:00,
2013-03-04 13:48:00,43.0,34.0,26.79,NNW,337,14.0,17.0,68,0.00,,,-99.99,,2013-03-04 19:48:00,
2013-03-04 13:53:00,43.0,34.0,26.78,NW,312,23.0,28.0,68,0.00,,,-99.99,,2013-03-04 19:53:00,
2013-03-04 13:58:00,41.0,32.0,26.79,NNW,334,25.0,29.0,71,0.00,,,-99.99,,2013-03-04 19:58:00,
2013-03-04 14:03:00,41.0,34.0,26.79,NNW,336,25.0,30.0,76,0.00,,,-99.99,,2013-03-04 20:03:00,
2013-03-04 14:08:00,40.0,34.0,26.79,NW,310,24.0,30.0,77,0.00,,,-99.99,,2013-03-04 20:08:00,
2013-03-04 14:13:00,39.0,34.0,26.79,NNW,331,22.0,27.0,80,0.00,,,-99.99,,2013-03-04 20:13:00,
2013-03-04 14:18:00,39.0,34.0,26.79,NNW,338,21.0,25.0,80,0.00,,,-99.99,,2013-03-04 20:18:00,
2013-03-04 14:23:00,40.0,34.0,26.79,NNW,343,19.0,22.0,78,0.00,,,-99.99,,2013-03-04 20:23:00,
2013-03-04 14:28:00,40.0,34.0,26.80,NNW,343,17.0,20.0,77,0.00,,,-99.99,,2013-03-04 20:28:00,
2013-03-04 14:33:00,40.0,32.0,26.80,NNW,340,20.0,25.0,73,0.00,,,-99.99,,2013-03-04 20:33:00,
2013-03-04 14:38:00,40.0,32.0,26.81,NW,306,23.0,28.0,73,0.00,,,-99.99,,2013-03-04 20:38:00,
2013-03-04 14:43:00,40.0,30.0,26.81,NNW,336,27.0,34.0,70,0.00,,,-99.99,,2013-03-04 20:43:00,
2013-03-04 14:48:00,39.0,32.0,26.82,NNW,340,26.0,30.0,75,0.00,,,-99.99,,2013-03-04 20:48:00,
2013-03-04 14:53:00,38.0,32.0,26.83,NW,317,24.0,29.0,79,0.00,,,-99.99,,2013-03-04 20:53:00,
2013-03-04 14:58:00,37.0,32.0,26.83,NNW,338,19.0,24.0,82,0.00,,,-99.99,,2013-03-04 20:58:00,
2013-03-04 15:03:00,37.0,32.0,26.83,NNW,345,15.0,18.0,83,0.00,,,-99.99,,2013-03-04 21:03:00,
2013-03-04 15:13:00,37.0,32.0,26.83,North,353,13.0,16.0,79,0.00,,,-99.99,,2013-03-04 21:13:00,
2013-03-04 15:18:00,37.0,32.0,26.84,NW,321,14.0,22.0,84,0.00,,,-99.99,,2013-03-04 21:18:00,
2013-03-04 15:23:00,37.0,32.0,26.84,NW,307,20.0,24.0,79,0.00,,,-99.99,,2013-03-04 21:23:00,
2013-03-04 15:33:00,36.0,32.0,26.85,North,8,13.0,16.0,84,0.00,,,-99.99,,2013-03-04 21:33:00,
2013-03-04 15:38:00,37.0,32.0,26.85,NNW,345,12.0,15.0,81,0.00,,,-99.99,,2013-03-04 21:38:00,
2013-03-04 15:43:00,37.0,32.0,26.85,NW,317,20.0,25.0,80,0.00,,,-99.99,,2013-03-04 21:43:00,
2013-03-04 15:48:00,38.0,32.0,26.85,NNW,340,17.0,21.0,78,0.00,,,-99.99,,2013-03-04 21:48:00,
2013-03-04 15:53:00,38.0,32.0,26.86,North,358,15.0,19.0,77,0.00,,,-99.99,,2013-03-04 21:53:00,
2013-03-04 15:58:00,39.0,34.0,26.86,NNE,17,14.0,17.0,79,0.00,,,-99.99,,2013-03-04 21:58:00,
2013-03-04 16:03:00,39.0,32.0,26.86,North,11,15.0,18.0,76,0.00,,,-99.99,,2013-03-04 22:03:00,
2013-03-04 16:13:00,40.0,32.0,26.86,North,353,21.0,27.0,74,0.00,,,-99.99,,2013-03-04 22:13:00,
2013-03-04 16:18:00,40.0,32.0,26.87,NNW,337,16.0,23.0,72,0.00,,,-99.99,,2013-03-04 22:18:00,
2013-03-04 16:23:00,40.0,30.0,26.87,WNW,292,19.0,26.0,70,0.00,,,-99.99,,2013-03-04 22:23:00,
2013-03-04 16:28:00,40.0,30.0,26.87,NNW,331,23.0,29.0,70,0.00,,,-99.99,,2013-03-04 22:28:00,
2013-03-04 16:33:00,40.0,30.0,26.87,NW,305,25.0,31.0,66,0.00,,,-99.99,,2013-03-04 22:33:00,
2013-03-04 16:38:00,40.0,30.0,26.88,NNW,331,24.0,30.0,68,0.00,,,-99.99,,2013-03-04 22:38:00,
2013-03-04 16:43:00,40.0,30.0,26.88,NNW,329,26.0,33.0,66,0.00,,,-99.99,,2013-03-04 22:43:00,
2013-03-04 16:48:00,40.0,30.0,26.89,NW,306,24.0,29.0,66,0.00,,,-99.99,,2013-03-04 22:48:00,
2013-03-04 16:58:00,40.0,28.0,26.88,NW,321,23.0,27.0,64,0.00,,,-99.99,,2013-03-04 22:58:00,
2013-03-04 17:03:00,40.0,30.0,26.88,NW,320,22.0,26.0,66,0.00,,,-99.99,,2013-03-04 23:03:00,
2013-03-04 17:08:00,40.0,28.0,26.88,NNW,337,21.0,25.0,65,0.00,,,-99.99,,2013-03-04 23:08:00,
2013-03-04 17:13:00,40.0,28.0,26.88,NW,316,22.0,25.0,64,0.00,,,-99.99,,2013-03-04 23:13:00,
2013-03-04 17:18:00,41.0,30.0,26.89,NNW,333,23.0,27.0,63,0.00,,,-99.99,,2013-03-04 23:18:00,
2013-03-04 17:23:00,40.0,28.0,26.89,NNW,338,26.0,33.0,62,0.00,,,-99.99,,2013-03-04 23:23:00,
2013-03-04 17:28:00,40.0,27.0,26.90,NNW,341,22.0,28.0,60,0.00,,,-99.99,,2013-03-04 23:28:00,
2013-03-04 17:38:00,39.0,27.0,26.92,NNW,336,24.0,29.0,59,0.00,,,-99.99,,2013-03-04 23:38:00,
2013-03-04 17:43:00,39.0,25.0,26.93,NW,317,24.0,28.0,58,0.00,,,-99.99,,2013-03-04 23:43:00,
2013-03-04 17:48:00,39.0,25.0,26.94,NNW,334,26.0,31.0,57,0.00,,,-99.99,,2013-03-04 23:48:00,
2013-03-04 17:53:00,39.0,27.0,26.94,NNW,331,26.0,33.0,59,0.00,,,-99.99,,2013-03-04 23:53:00,
2013-03-04 18:03:00,38.0,25.0,26.93,North,6,21.0,24.0,60,0.00,,,-99.99,,2013-03-05 00:03:00,
2013-03-04 18:08:00,38.0,27.0,26.94,NW,313,21.0,26.0,61,0.00,,,-99.99,,2013-03-05 00:08:00,
2013-03-04 18:13:00,37.0,25.0,26.94,NW,323,19.0,23.0,62,0.00,,,-99.99,,2013-03-05 00:13:00,
2013-03-04 18:18:00,37.0,25.0,26.94,NNW,337,19.0,23.0,62,0.00,,,-99.99,,2013-03-05 00:18:00,
2013-03-04 18:28:00,37.0,25.0,26.96,NNW,331,18.0,23.0,63,0.00,,,-99.99,,2013-03-05 00:28:00,
2013-03-04 18:33:00,37.0,25.0,26.96,NW,317,16.0,18.0,63,0.00,,,-99.99,,2013-03-05 00:33:00,
2013-03-04 18:43:00,36.0,25.0,26.98,NNW,327,20.0,26.0,63,0.00,,,-99.99,,2013-03-05 00:43:00,
2013-03-04 18:48:00,36.0,25.0,26.98,North,354,19.0,23.0,64,0.00,,,-99.99,,2013-03-05 00:48:00,
2013-03-04 18:53:00,36.0,25.0,26.99,North,354,20.0,24.0,65,0.00,,,-99.99,,2013-03-05 00:53:00,
2013-03-04 18:58:00,35.0,25.0,26.99,North,354,19.0,24.0,65,0.00,,,-99.99,,2013-03-05 00:58:00,
2013-03-04 19:03:00,35.0,25.0,26.99,NNW,347,19.0,21.0,66,0.00,,,-99.99,,2013-03-05 01:03:00,
2013-03-04 19:13:00,35.0,25.0,26.99,NNW,344,15.0,18.0,66,0.00,,,-99.99,,2013-03-05 01:13:00,
2013-03-04 19:18:00,35.0,25.0,26.99,North,7,14.0,19.0,68,0.00,,,-99.99,,2013-03-05 01:18:00,
2013-03-04 19:28:00,34.0,25.0,27.00,NW,326,18.0,21.0,68,0.00,,,-99.99,,2013-03-05 01:28:00,
2013-03-04 19:33:00,34.0,25.0,27.01,NW,326,18.0,23.0,68,0.00,,,-99.99,,2013-03-05 01:33:00,
2013-03-04 19:43:00,34.0,23.0,27.01,North,353,23.0,28.0,66,0.00,,,-99.99,,2013-03-05 01:43:00,
2013-03-04 19:48:00,34.0,23.0,27.01,NNW,336,22.0,25.0,65,0.00,,,-99.99,,2013-03-05 01:48:00,
2013-03-04 19:53:00,33.0,23.0,27.01,NW,310,21.0,25.0,66,0.00,,,-99.99,,2013-03-05 01:53:00,
2013-03-04 19:58:00,33.0,23.0,27.01,NNW,336,21.0,26.0,66,0.00,,,-99.99,,2013-03-05 01:58:00,
2013-03-04 20:03:00,33.0,23.0,27.01,NW,323,25.0,28.0,67,0.00,,,-99.99,,2013-03-05 02:03:00,
2013-03-04 20:08:00,33.0,23.0,27.01,NNW,336,20.0,24.0,67,0.00,,,-99.99,,2013-03-05 02:08:00,
2013-03-04 20:13:00,32.0,21.0,27.01,NNW,329,22.0,26.0,66,0.00,,,-99.99,,2013-03-05 02:13:00,
2013-03-04 20:18:00,32.0,23.0,27.01,NNW,336,21.0,25.0,67,0.00,,,-99.99,,2013-03-05 02:18:00,
2013-03-04 20:23:00,32.0,21.0,27.02,NNW,338,21.0,26.0,65,0.00,,,-99.99,,2013-03-05 02:23:00,
2013-03-04 20:28:00,32.0,23.0,27.02,NW,307,23.0,28.0,67,0.00,,,-99.99,,2013-03-05 02:28:00,
2013-03-04 20:33:00,32.0,23.0,27.02,NNW,329,22.0,26.0,67,0.00,,,-99.99,,2013-03-05 02:33:00,
2013-03-04 20:43:00,31.0,21.0,27.03,NNW,329,25.0,31.0,66,0.00,,,-99.99,,2013-03-05 02:43:00,
2013-03-04 20:48:00,31.0,21.0,27.04,WNW,302,24.0,29.0,65,0.00,,,-99.99,,2013-03-05 02:48:00,
2013-03-04 20:53:00,31.0,21.0,27.04,NW,326,22.0,28.0,68,0.00,,,-99.99,,2013-03-05 02:53:00,
2013-03-04 20:58:00,30.0,21.0,27.04,NNW,327,23.0,27.0,67,0.00,,,-99.99,,2013-03-05 02:58:00,
2013-03-04 21:03:00,30.0,21.0,27.04,NW,316,25.0,28.0,68,0.00,,,-99.99,,2013-03-05 03:03:00,
2013-03-04 21:13:00,30.0,21.0,27.05,NNW,331,23.0,28.0,69,0.00,,,-99.99,,2013-03-05 03:13:00,
2013-03-04 21:23:00,30.0,21.0,27.06,NW,316,20.0,23.0,69,0.00,,,-99.99,,2013-03-05 03:23:00,
2013-03-04 21:28:00,29.0,19.0,27.06,NNW,337,17.0,21.0,69,0.00,,,-99.99,,2013-03-05 03:28:00,
2013-03-04 21:33:00,29.0,21.0,27.06,NNW,329,17.0,21.0,70,0.00,,,-99.99,,2013-03-05 03:33:00,
2013-03-04 21:38:00,29.0,21.0,27.07,NNW,330,18.0,22.0,70,0.00,,,-99.99,,2013-03-05 03:38:00,
2013-03-04 21:43:00,29.0,19.0,27.07,NW,310,22.0,27.0,68,0.00,,,-99.99,,2013-03-05 03:43:00,
2013-03-04 21:48:00,29.0,21.0,27.07,NW,321,21.0,25.0,70,0.00,,,-99.99,,2013-03-05 03:48:00,
2013-03-04 21:53:00,28.0,19.0,27.07,NW,309,19.0,25.0,71,0.00,,,-99.99,,2013-03-05 03:53:00,
2013-03-04 21:58:00,28.0,19.0,27.08,NNW,341,19.0,23.0,71,0.00,,,-99.99,,2013-03-05 03:58:00,
2013-03-04 22:03:00,28.0,19.0,27.08,NW,324,20.0,25.0,71,0.00,,,-99.99,,2013-03-05 04:03:00,
2013-03-04 22:08:00,28.0,19.0,27.09,NNW,331,18.0,23.0,71,0.00,,,-99.99,,2013-03-05 04:08:00,
2013-03-04 22:13:00,28.0,19.0,27.09,NNW,327,19.0,23.0,72,0.00,,,-99.99,,2013-03-05 04:13:00,
2013-03-04 22:18:00,28.0,19.0,27.09,NNW,333,17.0,21.0,72,0.00,,,-99.99,,2013-03-05 04:18:00,
2013-03-04 22:23:00,28.0,21.0,27.09,NNW,337,17.0,21.0,73,0.00,,,-99.99,,2013-03-05 04:23:00,
2013-03-04 22:28:00,27.0,19.0,27.09,NNW,329,19.0,22.0,73,0.00,,,-99.99,,2013-03-05 04:28:00,
2013-03-04 22:33:00,27.0,19.0,27.09,NNW,334,16.0,19.0,73,0.00,,,-99.99,,2013-03-05 04:33:00,
2013-03-04 22:38:00,27.0,19.0,27.09,NNW,340,21.0,24.0,73,0.00,,,-99.99,,2013-03-05 04:38:00,
2013-03-04 22:43:00,27.0,19.0,27.09,NNW,331,21.0,29.0,72,0.00,,,-99.99,,2013-03-05 04:43:00,
2013-03-04 22:48:00,27.0,19.0,27.09,NW,314,20.0,24.0,74,0.00,,,-99.99,,2013-03-05 04:48:00,
2013-03-04 22:53:00,27.0,19.0,27.10,NNW,340,19.0,23.0,74,0.00,,,-99.99,,2013-03-05 04:53:00,
2013-03-04 22:58:00,27.0,19.0,27.10,NNW,341,20.0,24.0,74,0.00,,,-99.99,,2013-03-05 04:58:00,
2013-03-04 23:03:00,26.0,19.0,27.10,NNW,337,16.0,19.0,74,0.00,,,-99.99,,2013-03-05 05:03:00,
2013-03-04 23:08:00,26.0,19.0,27.10,NNW,333,17.0,22.0,75,0.00,,,-99.99,,2013-03-05 05:08:00,
2013-03-04 23:13:00,26.0,19.0,27.10,NW,326,16.0,20.0,75,0.00,,,-99.99,,2013-03-05 05:13:00,
2013-03-04 23:18:00,26.0,19.0,27.10,NW,319,16.0,19.0,76,0.00,,,-99.99,,2013-03-05 05:18:00,
2013-03-04 23:23:00,26.0,19.0,27.10,NW,321,18.0,21.0,76,0.00,,,-99.99,,2013-03-05 05:23:00,
2013-03-04 23:28:00,26.0,19.0,27.11,NW,326,17.0,21.0,76,0.00,,,-99.99,,2013-03-05 05:28:00,
2013-03-04 23:33:00,26.0,19.0,27.11,NNW,327,18.0,21.0,75,0.00,,,-99.99,,2013-03-05 05:33:00,
2013-03-04 23:38:00,26.0,19.0,27.11,NW,310,17.0,22.0,76,0.00,,,-99.99,,2013-03-05 05:38:00,
2013-03-04 23:43:00,26.0,19.0,27.11,NNW,333,15.0,18.0,77,0.00,,,-99.99,,2013-03-05 05:43:00,
2013-03-04 23:48:00,26.0,19.0,27.11,NNW,333,15.0,19.0,77,0.00,,,-99.99,,2013-03-05 05:48:00,
2013-03-04 23:53:00,26.0,19.0,27.11,NNW,333,14.0,18.0,75,0.00,,,-99.99,,2013-03-05 05:53:00,
2013-03-04 23:58:00,26.0,19.0,27.12,NNW,327,13.0,16.0,75,0.00,,,-99.99,,2013-03-05 05:58:00,